KAZSTSAT

Last updated on Sat Jul 05 2025 00:02:29 GMT+0000 (Coordinated Universal Time)

1 43783U 18099AB 25185.59488324 .00001524 00000+0 13109-3 0 9994 2 43783 97.4729 227.5692 0009018 126.4639 233.7416 14.98760349359225
UTC large
Height (km)
Speed (km/s)
/
Latitude / Longitude
Inclination (degrees)
Orbital Period (minutes)
Azimuth
Elevation
Range (km)
Doppler Factor

Next 0 passes for location: London (51.5072 / 0.1276)

Sorry there are no passes over London.